TimeEDT,TemperatureF,Dew PointF,Humidity,Sea Level PressureIn,VisibilityMPH,Wind Direction,Wind SpeedMPH,Gust SpeedMPH,PrecipitationIn,Events,Conditions,WindDirDegrees,DateUTC
12:23 AM,39.2,37.4,93,30.14,1.2,Calm,Calm,-,N/A,,Overcast,0,2013-05-27 04:23:00
12:30 AM,39.2,37.4,93,30.14,1.5,East,4.6,-,N/A,,Overcast,100,2013-05-27 04:30:00
12:37 AM,39.2,37.4,93,30.14,1.2,East,4.6,-,N/A,,Overcast,80,2013-05-27 04:37:00
12:50 AM,39.2,37.4,93,30.14,0.8,Calm,Calm,-,N/A,,Mist,0,2013-05-27 04:50:00
12:52 AM,39.0,36.0,89,30.16,0.8,Calm,Calm,-,N/A,,Mist,0,2013-05-27 04:52:00
1:04 AM,39.2,37.4,93,30.14,1.2,East,3.5,-,N/A,,Overcast,100,2013-05-27 05:04:00
1:11 AM,39.2,37.4,93,30.14,1.5,ESE,4.6,-,N/A,,Overcast,120,2013-05-27 05:11:00
1:29 AM,37.4,35.6,93,30.14,1.0,East,4.6,-,N/A,,Overcast,100,2013-05-27 05:29:00
1:36 AM,37.4,35.6,93,30.14,0.5,Calm,Calm,-,N/A,Fog,Fog,0,2013-05-27 05:36:00
1:52 AM,37.9,35.1,89,30.16,0.5,Calm,Calm,-,N/A,Fog,Fog,0,2013-05-27 05:52:00
2:05 AM,37.4,33.8,87,30.14,1.5,ESE,3.5,-,N/A,,Overcast,120,2013-05-27 06:05:00
2:07 AM,37.4,33.8,87,30.14,3.0,Calm,Calm,-,N/A,,Overcast,0,2013-05-27 06:07:00
2:29 AM,35.6,33.8,93,30.14,10.0,ESE,4.6,-,N/A,,Scattered Clouds,120,2013-05-27 06:29:00
2:52 AM,36.0,33.1,89,30.16,10.0,Calm,Calm,-,N/A,,Clear,0,2013-05-27 06:52:00
3:52 AM,35.1,32.0,89,30.17,10.0,Calm,Calm,-,N/A,,Clear,0,2013-05-27 07:52:00
4:52 AM,35.1,30.9,85,30.18,9.0,Calm,Calm,-,N/A,,Clear,0,2013-05-27 08:52:00
5:52 AM,35.1,30.9,85,30.20,9.0,Calm,Calm,-,N/A,,Clear,0,2013-05-27 09:52:00
6:52 AM,37.9,35.1,89,30.21,10.0,Calm,Calm,-,N/A,,Clear,0,2013-05-27 10:52:00
7:52 AM,45.0,39.0,80,30.20,10.0,Calm,Calm,-,N/A,,Clear,0,2013-05-27 11:52:00
8:52 AM,53.1,37.9,57,30.19,10.0,Calm,Calm,-,N/A,,Clear,0,2013-05-27 12:52:00
9:52 AM,57.0,36.0,45,30.19,10.0,Variable,5.8,-,N/A,,Clear,0,2013-05-27 13:52:00
10:52 AM,60.1,34.0,38,30.18,10.0,NW,8.1,-,N/A,,Clear,310,2013-05-27 14:52:00
11:52 AM,62.1,33.1,34,30.17,10.0,Variable,3.5,-,N/A,,Clear,0,2013-05-27 15:52:00
12:52 PM,64.0,33.1,31,30.16,10.0,North,9.2,-,N/A,,Clear,350,2013-05-27 16:52:00
1:52 PM,64.9,34.0,32,30.14,10.0,West,8.1,16.1,N/A,,Clear,270,2013-05-27 17:52:00
2:52 PM,66.0,33.1,29,30.13,10.0,West,6.9,17.3,N/A,,Clear,270,2013-05-27 18:52:00
3:52 PM,66.9,33.1,28,30.12,10.0,West,5.8,16.1,N/A,,Clear,260,2013-05-27 19:52:00
4:52 PM,68.0,32.0,26,30.11,10.0,Variable,4.6,-,N/A,,Clear,0,2013-05-27 20:52:00
5:52 PM,66.9,32.0,27,30.12,10.0,West,6.9,-,N/A,,Clear,260,2013-05-27 21:52:00
6:52 PM,66.0,33.1,29,30.12,10.0,West,4.6,-,N/A,,Clear,270,2013-05-27 22:52:00
7:52 PM,61.0,34.0,36,30.13,10.0,Calm,Calm,-,N/A,,Clear,0,2013-05-27 23:52:00
8:52 PM,52.0,39.9,63,30.14,10.0,Calm,Calm,-,N/A,,Clear,0,2013-05-28 00:52:00
9:52 PM,46.9,39.9,77,30.17,10.0,Calm,Calm,-,N/A,,Clear,0,2013-05-28 01:52:00
10:52 PM,46.0,37.9,73,30.18,10.0,Calm,Calm,-,N/A,,Clear,0,2013-05-28 02:52:00
11:52 PM,43.0,37.0,80,30.21,10.0,Calm,Calm,-,N/A,,Clear,0,2013-05-28 03:52:00